Ευχαριστούμε που συμβάλλετε στη διατήρηση της σελίδας μας.

Thank you for your donations, it really helps to maintain the page.


Στατιστικά Καιρού & Άλλα..









Δείκτης Πυρκαγιάς (FWI)

Καστελόκαμπος Ρίον more information Kastelokampos Rion


Κάμερα Ρομανού more information Romanos Cam


Ραντάρ Κεραυνών more information blitzortung!


Ραντάρ Βροχής more information rain snow radar


Επισκεφθείτε άλλες ιστοσελίδες καιρού μας:

Meteopatras.Eu in
Euweather NetworkMeteopatras.Eu in Euweather Network

Weather CloudWeather Cloud

PWS WeatherPWS Weather

Awekas NetWeather data from station Patra-Ketx

WunderGroundWeather data from station Patra-Ketx




Ιδιοκτησία και Επίβλεψη : Μουλάς Αντρέας

 Πάτρα, Ελλάδα - Γ.Πλάτος : 38°14'21" Β - Γ.Μήκος : 21°45'5" Α - Υψόμετρο : 56μ

Select another period ( hide this area )

Μονάδες Περίοδο Custom range Directly to
Μετρικό Αγγλικό Και τα δύο
Καθημερινά Εβδομαδιαία Μηνιαία Ετήσια
use both date-selectors for a custom range
previous Ημέρα
With this date

WeatherUnderground graphs for this period ( click here )


Warning: Division by zero in /storage/content/70/1007070/meteopatras.eu/public_html/weather/wu/WU-History4.php on line 835
Καθημερινά Περίληψη για Σάββατο 19 Οκτόμβριος 2019
Ώρα Temp. ( °C ) Dew pt. ( °C ) Άνεμος ( km/h ) απο Ριπή ( km/h ) Πίεση ( hPa ) Humid.( % ) Rainrate ( cm ) Solar ( W/m2 )
Υψηλή20,2 16,2 3,4 ΝΑ ( 39/51 ) 9,7 1017,6 80 - 0
Μέση Τιμή19,8 15,5 1,7 ΝΑ #15/30 4,4 1017,5 77 - NAN #0/30
Χαμηλή19,3 14,6 -   0,0 1017,4 72 -  
Καθημερινά Tabular details for Σάββατο 19 Οκτόμβριος 2019
Ώρα Temp. ( °C ) Dew pt. ( °C ) Άνεμος ( km/h ) απο Ριπή ( km/h ) Πίεση ( hPa ) Humid.( % ) Rainrate ( cm ) Solar ( W/m2 )
00:00 19,9 16,1 1,6 ΝΑ 4,8 1017,6 79 - -
00:05 20,0 16,2   Άπνοια 1,6 1017,6 79 - -
00:10 20,0 16,2 1,6 ΝΑ 4,8 1017,6 79 - -
00:15 20,0 16,1 1,6 ΝΑ 4,8 1017,6 78 - -
00:20 20,1 15,9 3,2 ΝΑ 6,4 1017,5 77 - -
00:25 20,1 15,7 3,2 ΝΑ 6,4 1017,5 76 - -
00:30 20,2 15,8 3,2 ΑΝΑ 4,8 1017,5 76 - -
00:35 20,2 15,8   Άπνοια 4,8 1017,5 76 - -
00:40 20,2 15,8   Άπνοια   1017,5 76 - -
00:45 20,1 15,9   Άπνοια   1017,5 77 - -
00:50 19,9 16,0   Άπνοια 1,6 1017,5 78 - -
00:55 19,8 15,9 3,2 ΑΝΑ 6,4 1017,4 78 - -
01:00 19,8 15,9   Άπνοια 3,2 1017,4 78 - -
01:05 19,7 16,0 1,6 ΑΝΑ 3,2 1017,4 79 - -
01:10 19,7 15,9   Άπνοια 3,2 1017,4 79 - -
01:15 19,6 15,8   Άπνοια 3,2 1017,4 79 - -
01:20 19,4 15,9 1,6 ΑΝΑ 4,8 1017,4 80 - -
01:25 19,3 15,6 3,2 ΑΝΑ 8,0 1017,4 79 - -
01:30 19,4 15,7 1,6 ΝΑ 9,7 1017,4 79 - -
01:35 19,4 15,7 1,6 ΝΑ 3,2 1017,4 79 - -
01:40 19,4 15,5   Άπνοια   1017,4 78 - -
01:45 19,4 15,5   Άπνοια 3,2 1017,5 78 - -
01:50 19,4 14,9 3,2 ΝΑ 6,4 1017,4 75 - -
01:55 19,6 14,6 3,2 ΝΑ 4,8 1017,5 73 - -
02:00 19,7 14,6 3,2 ΝΑ 4,8 1017,4 72 - -
02:05 19,8 14,6 1,6 ΝΑ 4,8 1017,4 72 - -
02:10 19,8 14,6 3,2 ΝΑ 6,4 1017,4 72 - -
02:15 19,8 14,6 3,2 ΝΑ 4,8 1017,4 72 - -
02:20 19,8 14,6 3,4 ΝΑ 5,6 1017,4 72 - -
02:25 19,7 14,6 3,2 ΝΑ 6,4 1017,4 72 - -
Καθημερινά Περίληψη για Σάββατο 19 Οκτόμβριος 2019
Ώρα Temp. ( °C ) Dew pt. ( °C ) Άνεμος ( km/h ) απο Ριπή ( km/h ) Πίεση ( hPa ) Humid.( % ) Rainrate ( cm ) Solar ( W/m2 )
Υψηλή20,2 16,2 3,4 ΝΑ ( 39/51 ) 9,7 1017,6 80 - 0
Μέση Τιμή19,8 15,5 1,7 ΝΑ #15/30 4,4 1017,5 77 - NAN #0/30
Χαμηλή19,3 14,6 -   0,0 1017,4 72 -  
Καθημερινά Tabular details for Σάββατο 19 Οκτόμβριος 2019
Ώρα Temp. ( °C ) Dew pt. ( °C ) Άνεμος ( km/h ) απο Ριπή ( km/h ) Πίεση ( hPa ) Humid.( % ) Rainrate ( cm ) Solar ( W/m2 )
00:00 19,9 16,1 1,6 ΝΑ 4,8 1017,6 79 - -
00:05 20,0 16,2   Άπνοια 1,6 1017,6 79 - -
00:10 20,0 16,2 1,6 ΝΑ 4,8 1017,6 79 - -
00:15 20,0 16,1 1,6 ΝΑ 4,8 1017,6 78 - -
00:20 20,1 15,9 3,2 ΝΑ 6,4 1017,5 77 - -
00:25 20,1 15,7 3,2 ΝΑ 6,4 1017,5 76 - -
00:30 20,2 15,8 3,2 ΑΝΑ 4,8 1017,5 76 - -
00:35 20,2 15,8   Άπνοια 4,8 1017,5 76 - -
00:40 20,2 15,8   Άπνοια   1017,5 76 - -
00:45 20,1 15,9   Άπνοια   1017,5 77 - -
00:50 19,9 16,0   Άπνοια 1,6 1017,5 78 - -
00:55 19,8 15,9 3,2 ΑΝΑ 6,4 1017,4 78 - -
01:00 19,8 15,9   Άπνοια 3,2 1017,4 78 - -
01:05 19,7 16,0 1,6 ΑΝΑ 3,2 1017,4 79 - -
01:10 19,7 15,9   Άπνοια 3,2 1017,4 79 - -
01:15 19,6 15,8   Άπνοια 3,2 1017,4 79 - -
01:20 19,4 15,9 1,6 ΑΝΑ 4,8 1017,4 80 - -
01:25 19,3 15,6 3,2 ΑΝΑ 8,0 1017,4 79 - -
01:30 19,4 15,7 1,6 ΝΑ 9,7 1017,4 79 - -
01:35 19,4 15,7 1,6 ΝΑ 3,2 1017,4 79 - -
01:40 19,4 15,5   Άπνοια   1017,4 78 - -
01:45 19,4 15,5   Άπνοια 3,2 1017,5 78 - -
01:50 19,4 14,9 3,2 ΝΑ 6,4 1017,4 75 - -
01:55 19,6 14,6 3,2 ΝΑ 4,8 1017,5 73 - -
02:00 19,7 14,6 3,2 ΝΑ 4,8 1017,4 72 - -
02:05 19,8 14,6 1,6 ΝΑ 4,8 1017,4 72 - -
02:10 19,8 14,6 3,2 ΝΑ 6,4 1017,4 72 - -
02:15 19,8 14,6 3,2 ΝΑ 4,8 1017,4 72 - -
02:20 19,8 14,6 3,4 ΝΑ 5,6 1017,4 72 - -
02:25 19,7 14,6 3,2 ΝΑ 6,4 1017,4 72 - -

Download your copy of this data-set  here

Our weather-data as stored at Weather Underground. Script developed by Jim McMurry. Προσαρμοσμένος για το πρότυπο του Leuven-Template.eu

Μπορείτε να βρείτε πληροφορίες καιρού μας και σε:

European Weather Network

WeatherCloud

Weather Underground

Δύκτιο Σταθμών Ελλάδας

AWEKAS

HAMweather, WeatherForYou, PWS Weather

MeteoPatras.Eu